Погода в Со-Сент-Мари

Канада     46°31′04″N   84°20′52″W
темп.,
°C
ветер,
м/с
пор.,
м/с
влажн.,
%
обл.,
%
осадки,
мм/ч
давл.,
гПа
погр.,
м
18 января, вт
вт1801:00−19ссв239324 0.1 101344
04:00−24с11985 0.0 101610
07:00−26св21995 0.0 101814
10:00−19в2387100 0.0 1018107
13:00−14юв3679100 0.0 1016362
16:00−13вюв51391100 0.1 1012390
19:00−11вюв71794100 2.5 1006653
22:00−7вюв51496100 3.3 1000546
19 января, ср
ср1901:00−2юз2999100 6.1 996557
04:00−3зсз61387100 0.8 997735
07:00−8зюз61692100 0.9 999741
10:00−9сз7139091 0.4 10061025
13:00−13ссз6128681 0.6 1012980
16:00
19:00−18с412846 0.0 1023393
22:00−20ссв311855 0.0 1026307
20 января, чт
чт2001:00
04:00−28ссв119990 0.0 10329
07:00−27св119985 0.1 103424
10:00−23св129369 0.0 103597
13:00−16зсз138799 0.1 1034430
16:00−15зюз228865 0.0 1034329
19:00−23св1110040 0.0 10369
22:00−23всв2110088 0.0 103619
21 января, пт
пт2101:00−22в12100100 0.1 103733
04:00−20в1310098 0.1 103770
07:00−20вюв1310093 0.3 103757
10:00−18юв129994 0.0 1038104
13:00−11ю2688100 0.0 1035566
16:00−8ю3885100 0.1 1033808
19:00−16вюв2697100 0.1 103390
22:00−19вюв2210073 0.0 103239
22 января, сб
сб2201:00−16ююв2695100 0.0 1030154
04:00−11ю31290100 0.0 1027441
07:00−10ю41094100 0.3 1024427
10:00−7ююз41095100 0.3 1022700
13:00−6зюз41194100 2.1 10191048
16:00−7з3795100 1.0 1017698
19:00−9юз2796100 1.4 1017224
22:00−8сз497889 0.7 1016729